Weather History for Dayton, OH

Change the Weather History Date:

Monday, June 17, 2013

  Actual Average Record
Temperature  
Mean Temperature 77 °F 71 °F  
Max Temperature 86 °F 81 °F 98 °F (1944)
Min Temperature 67 °F 62 °F 43 °F (1899)
Degree Days  
Heating Degree Days 0 0  
Month to date heating degree days 11 22  
Since 1 June heating degree days 11 22  
Since 1 July heating degree days 5457 5642  
Cooling Degree Days 12 7  
Month to date cooling degree days 87 87  
Year to date cooling degree days 218 157  
Since 1 June cooling degree days 87 87  
Growing Degree Days 26 (Base 50)    
Moisture  
Dew Point 66 °F    
Average Humidity 69    
Maximum Humidity 93    
Minimum Humidity 44    
Precipitation  
Precipitation 0.00 in 0.15 in 2.10 in (1983)
Month to date precipitation 2.17 2.39  
Year to date precipitation 16.47 19.43  
Snow  
Snow 0.00 in 0.00 in 0.00 in ()
Month to date snowfall 0.0 0.0  
Since 1 June snowfall 0.0 0.0  
Since 1 July snowfall 36.3 23.3  
Snow Depth 0.00 in    
Sea Level Pressure  
Sea Level Pressure 29.96 in    
Wind  
Wind Speed 4 mph (WSW)    
Max Wind Speed 12 mph    
Max Gust Speed 15 mph    
Visibility 7 miles    
Events      
T = Trace of Precipitation, MM = Missing Value Source: NWS Daily Summary

Daily Weather History Graph

Daily Weather History Graph

Search for Another Location

Airport:

Trip Planner

Search our weather history database for the weather conditions in past years. The results will help you decide how hot, cold, wet, or windy it might be!

Date:

Astronomy

Jun. 17, 2013 Rise Set
Actual Time 6:07 AM EDT 9:07 PM EDT
Civil Twilight 5:35 AM EDT 9:40 PM EDT
Nautical Twilight 4:53 AM EDT 10:22 PM EDT
Astronomical Twilight 4:05 AM EDT 11:10 PM EDT
Moon 2:46 PM EDT (6/17) 1:42 AM EDT (6/17)
Length of Visible Light 16h 05m
Length of Day
15h 00m
First Quarter, 60% of the Moon is Illuminated
Jun 17
First Quarter
Jun 23
Full
Jun 30
Last Quarter
Jul 8
New
Jul 15
First Quarter

Hourly Weather History & Observations

Time (EDT) Temp. Heat Index Dew Point Humidity Pressure Visibility Wind Dir Wind Speed Gust Speed Precip Events Conditions
12:56 AM 69.1 °F - 66.0 °F 90% 29.97 in 10.0 mi SW 8.1 mph - N/A   Overcast
1:56 AM 68.0 °F - 66.0 °F 93% 29.98 in 9.0 mi WSW 6.9 mph - N/A   Scattered Clouds
2:56 AM 69.1 °F - 66.9 °F 93% 29.96 in 7.0 mi WSW 6.9 mph - N/A   Overcast
3:56 AM 68.0 °F - 66.9 °F 96% 29.97 in 6.0 mi WSW 4.6 mph - N/A   Overcast
4:56 AM 68.0 °F - 66.9 °F 96% 29.97 in 6.0 mi SW 6.9 mph - N/A   Mostly Cloudy
5:17 AM 68.0 °F - 66.2 °F 94% 29.98 in 5.0 mi SSW 4.6 mph - N/A   Overcast
5:36 AM 68.0 °F - 66.2 °F 94% 29.99 in 4.0 mi SW 4.6 mph - N/A   Mostly Cloudy
5:48 AM 68.0 °F - 66.2 °F 94% 29.99 in 4.0 mi SW 5.8 mph - N/A   Overcast
5:56 AM 68.0 °F - 66.9 °F 96% 29.97 in 4.0 mi WSW 5.8 mph - N/A   Overcast
6:34 AM 68.0 °F - 66.2 °F 94% 29.99 in 2.0 mi WSW 6.9 mph - N/A   Overcast
6:42 AM 68.0 °F - 66.2 °F 94% 30.00 in 1.8 mi WSW 5.8 mph - N/A   Overcast
6:54 AM 69.8 °F - 66.2 °F 88% 30.01 in 2.0 mi West 6.9 mph - N/A   Overcast
6:56 AM 69.1 °F - 66.9 °F 93% 29.99 in 2.0 mi West 5.8 mph - N/A   Overcast
7:56 AM 69.1 °F - 66.9 °F 93% 29.98 in 2.0 mi Calm Calm - N/A   Overcast
8:56 AM 71.1 °F - 68.0 °F 90% 29.97 in 2.5 mi West 3.5 mph - N/A   Overcast
9:01 AM 71.6 °F - 68.0 °F 88% 29.99 in 3.0 mi WSW 3.5 mph - N/A   Overcast
9:56 AM 73.0 °F - 68.0 °F 84% 29.99 in 4.0 mi West 4.6 mph - N/A   Haze
10:04 AM 73.4 °F - 68.0 °F 83% 30.01 in 4.0 mi Calm Calm - N/A   Haze
10:56 AM 75.9 °F - 68.0 °F 76% 29.98 in 4.0 mi WNW 4.6 mph - N/A   Haze
11:28 AM 75.2 °F - 69.8 °F 83% 30.00 in 5.0 mi Variable 3.5 mph - N/A   Haze
11:38 AM 77.0 °F - 68.0 °F 74% 30.00 in 6.0 mi WSW 5.8 mph - N/A   Haze
11:56 AM 78.1 °F - 68.0 °F 71% 29.98 in 8.0 mi SW 4.6 mph - N/A   Scattered Clouds
12:56 PM 81.0 °F 83.3 °F 66.9 °F 62% 29.97 in 9.0 mi Calm Calm - N/A   Scattered Clouds
1:56 PM 82.0 °F 83.1 °F 63.0 °F 52% 29.96 in 10.0 mi Calm Calm - N/A   Partly Cloudy
2:56 PM 82.0 °F 83.0 °F 62.1 °F 51% 29.95 in 10.0 mi WSW 6.9 mph - N/A   Mostly Cloudy
3:56 PM 84.9 °F 85.4 °F 62.1 °F 46% 29.93 in 10.0 mi West 8.1 mph - N/A   Mostly Cloudy
4:56 PM 84.9 °F 85.4 °F 62.1 °F 46% 29.90 in 10.0 mi West 5.8 mph - N/A   Mostly Cloudy
5:56 PM 84.9 °F 84.8 °F 60.1 °F 43% 29.90 in 10.0 mi NW 3.5 mph - N/A   Mostly Cloudy
6:56 PM 82.0 °F 83.0 °F 62.1 °F 51% 29.90 in 10.0 mi NNW 3.5 mph - N/A   Overcast
7:56 PM 80.1 °F 81.9 °F 64.9 °F 60% 29.91 in 10.0 mi Calm Calm - N/A   Overcast
8:56 PM 79.0 °F - 64.0 °F 60% 29.91 in 10.0 mi Calm Calm - N/A   Overcast
9:56 PM 78.1 °F - 64.0 °F 62% 29.90 in 10.0 mi Calm Calm - N/A   Overcast
10:56 PM 75.0 °F - 64.0 °F 69% 29.91 in 10.0 mi Variable 4.6 mph - N/A   Overcast
11:56 PM 75.9 °F - 64.0 °F 67% 29.90 in 10.0 mi Calm Calm - N/A   Overcast